Theta_e
307 306 306 305 306 306 306 307 307 307 307 307 307 306 306 307 307 307 307 306 307 306 307 307 306 307 307 307 307 307 307 306 304 304 304 303 304 304 304 305 307 307 306 307 308 308 308 308 307 306 308 309 304 306 305 303 311 322 324 319 316 314 312 310 306 305 308 308 304 303 305 308 307 302 299 298 300 302 300 299 296 292 289 289 290 291 291 291
307 306 306 306 306 306 306 306 307 307 307 307 307 307 307 307 306 307 306 307 307 307 307 307 307 307 306 307 307 306 308 306 304 303 303 304 304 304 305 306 306 307 306 307 307 308 309 309 306 306 311 311 304 306 307 303 309 320 321 315 317 315 308 307 307 303 304 306 305 304 304 305 305 304 300 301 304 301 301 302 298 296 293 288 288 289 289 289
307 306 306 306 306 306 306 306 307 307 307 308 307 307 307 307 307 307 306 307 307 307 307 307 307 307 306 306 306 307 307 306 304 303 303 304 305 304 305 306 306 307 306 306 308 307 308 309 306 308 315 312 306 308 311 307 306 311 316 318 318 312 305 303 305 304 302 304 307 305 303 303 303 302 301 303 306 302 304 305 301 302 299 291 288 287 288 288
307 307 306 306 307 306 306 306 307 307 307 308 307 307 306 306 307 306 307 307 307 307 307 307 307 306 306 305 307 308 307 306 303 303 304 304 305 304 305 306 306 306 306 306 307 307 308 307 306 312 315 312 313 313 311 308 305 307 313 316 312 306 304 303 304 304 301 303 309 307 303 304 302 301 302 304 305 303 304 305 304 307 303 292 287 287 287 287
307 307 307 306 306 306 306 306 306 307 307 308 308 307 306 306 305 306 307 307 307 307 307 307 307 307 305 306 307 307 309 308 304 303 304 304 304 304 305 306 306 306 306 306 307 307 307 306 309 318 316 314 320 316 308 305 304 306 305 305 305 303 303 303 302 303 301 302 307 307 305 304 302 302 304 303 305 307 306 305 305 306 300 291 288 287 287 287
307 307 306 306 306 306 306 306 306 307 307 308 307 306 305 306 306 306 305 306 307 307 307 306 306 307 306 307 306 306 310 307 303 303 304 305 305 304 304 305 306 306 306 306 306 306 307 310 313 321 320 315 315 312 308 304 304 308 304 300 302 302 301 301 302 303 303 306 308 307 305 303 303 304 304 303 304 308 305 299 299 298 293 289 288 287 287 287
307 306 307 306 306 307 306 306 306 307 307 307 307 305 304 305 306 306 306 306 307 307 307 306 306 306 307 307 305 307 310 305 302 304 304 304 304 304 305 305 307 306 306 306 306 308 311 315 315 319 321 314 308 308 308 304 307 313 306 301 301 301 302 301 301 301 302 307 306 303 302 303 306 304 302 302 303 306 298 290 291 292 290 288 288 288 287 287
306 306 307 306 307 307 307 307 307 307 307 307 307 305 304 304 304 305 306 306 306 307 307 306 306 306 307 307 307 313 311 303 303 304 304 304 304 305 305 306 307 306 306 305 306 309 310 312 312 314 316 311 307 308 307 305 310 311 305 302 302 301 301 299 301 301 301 303 300 300 303 303 304 301 300 304 304 303 294 288 289 289 289 288 288 288 288 287
306 307 307 307 307 307 307 308 307 308 308 308 308 306 304 304 305 304 305 306 306 307 306 307 306 306 307 305 308 312 307 303 304 303 304 304 304 305 306 306 306 306 306 305 305 306 308 310 311 310 310 309 308 309 307 307 307 306 305 304 303 302 299 298 300 301 300 300 298 302 304 301 299 298 301 304 303 298 292 291 291 290 291 290 289 288 287 288
307 306 306 307 307 307 307 307 307 307 307 307 307 306 305 306 305 304 305 306 306 306 307 307 306 307 307 306 310 311 303 303 304 303 305 304 304 306 306 306 306 307 306 306 305 305 307 308 307 305 309 310 309 307 306 308 305 306 309 306 305 304 300 300 302 300 300 299 299 301 304 302 298 298 303 304 298 293 294 294 291 291 293 290 289 288 288 288
306 305 306 305 305 306 306 307 307 307 307 306 307 307 306 306 305 304 305 306 306 306 306 307 306 306 305 305 311 309 303 303 303 304 305 304 305 305 305 305 305 306 307 306 304 304 305 305 302 303 309 309 309 309 306 306 303 305 309 305 306 307 301 300 302 300 300 300 300 300 301 301 298 298 303 303 294 291 296 296 291 292 292 289 289 288 287 287
305 305 305 305 305 306 306 307 306 306 306 306 307 307 306 306 305 304 305 305 306 305 306 307 306 306 306 306 308 306 303 304 304 304 304 304 304 304 305 305 305 306 307 306 305 304 304 304 305 308 309 307 309 309 306 307 306 305 308 305 307 311 305 301 301 300 299 301 301 300 302 303 300 300 303 299 291 291 295 296 293 291 290 289 289 288 288 287
305 305 305 305 305 306 306 306 306 306 305 306 306 306 306 305 305 305 305 305 305 305 305 307 307 306 308 308 305 303 303 303 304 304 304 304 303 303 305 305 305 306 307 307 305 305 305 305 306 309 310 312 309 304 305 309 309 307 307 307 307 312 311 301 300 300 299 301 300 301 305 307 305 303 302 296 291 292 296 296 294 291 289 289 288 288 288 287
305 305 306 306 306 306 306 306 305 305 305 306 306 306 306 305 305 305 305 305 305 305 306 308 307 305 308 307 303 303 304 303 304 305 304 304 303 303 304 305 305 305 306 307 305 305 306 305 306 307 306 310 306 302 310 313 311 308 304 310 309 309 315 306 301 303 299 300 300 301 306 306 305 306 302 294 290 294 300 298 293 291 289 288 288 288 288 287
305 305 305 306 306 306 306 306 305 306 306 306 305 306 307 306 306 305 305 306 307 307 308 309 306 306 309 306 303 304 304 304 305 304 304 305 304 304 304 305 305 305 306 305 305 305 305 304 309 311 305 304 305 307 314 313 313 310 305 315 310 305 317 311 303 304 301 300 300 301 306 305 303 304 301 293 290 294 299 298 294 292 290 289 288 288 288 287
304 305 305 305 306 306 306 306 306 306 306 306 306 306 306 307 306 305 306 306 308 307 308 310 306 308 311 305 303 304 303 303 304 303 304 305 305 306 304 304 305 304 304 303 304 303 303 306 306 305 304 305 310 313 315 313 315 313 306 313 312 305 312 310 303 302 302 302 300 302 305 305 304 302 299 291 290 293 296 297 294 292 291 289 289 288 288 288
305 305 305 305 306 306 306 306 306 306 306 306 306 306 305 307 306 305 306 306 307 307 307 307 305 306 308 304 303 304 303 302 303 304 305 305 307 306 304 305 304 303 305 304 304 303 303 306 303 302 308 311 315 317 315 317 319 313 306 308 311 307 306 308 306 302 300 301 302 302 302 303 303 301 300 294 291 292 295 296 294 292 291 289 289 288 288 288
306 305 305 305 306 306 306 306 306 306 306 306 306 306 306 306 306 306 306 306 306 306 307 306 306 308 307 304 304 303 302 302 303 304 304 305 306 306 306 306 303 303 309 305 303 305 304 306 307 309 314 313 318 320 316 320 319 310 306 308 311 308 305 308 309 303 300 302 303 303 302 301 301 300 301 298 293 294 296 295 294 293 291 290 289 288 288 288
306 306 305 305 306 305 305 306 306 306 306 306 306 307 307 308 309 306 304 305 307 307 308 307 307 309 307 303 302 302 302 302 304 304 304 305 305 306 305 304 305 307 311 309 306 308 308 309 309 310 315 313 312 316 316 315 312 307 306 309 311 309 306 307 309 304 300 302 303 302 301 302 301 300 299 299 296 294 294 293 293 293 291 290 289 289 288 288
307 306 305 305 305 305 306 306 306 306 307 309 309 308 308 312 313 311 308 307 306 305 306 308 305 306 305 302 302 303 303 302 304 304 303 304 304 306 304 305 314 315 312 311 307 305 306 311 311 314 320 312 304 308 309 307 306 306 306 307 307 306 306 306 306 303 298 302 306 303 302 301 300 300 298 298 298 295 294 293 292 292 292 291 290 290 289 289
307 307 306 306 306 306 306 307 307 307 308 310 310 308 309 311 310 310 308 305 302 300 303 304 301 302 303 301 302 301 302 303 303 303 304 304 303 305 306 309 316 313 310 310 308 306 308 310 311 312 312 305 302 304 304 305 307 306 306 307 307 306 307 305 302 301 299 300 306 304 301 301 299 299 299 298 299 297 295 294 293 293 292 291 291 291 290 290
306 307 307 306 306 307 307 308 307 307 310 310 308 310 309 308 307 306 306 306 303 299 302 301 300 303 301 300 302 300 303 307 304 303 303 304 306 306 309 314 315 310 311 311 310 313 314 309 306 303 302 301 302 303 304 307 308 306 305 306 309 308 306 305 300 300 299 299 302 302 299 300 299 299 299 298 299 298 295 294 294 293 293 292 292 291 291 291
306 306 306 306 306 306 306 308 307 307 310 308 308 309 307 307 307 305 306 309 306 302 304 305 304 306 304 302 302 301 306 307 305 306 303 304 309 307 310 319 319 311 311 314 311 312 313 307 303 299 300 303 304 303 305 306 306 307 307 307 311 307 304 308 305 300 300 299 300 301 298 299 299 300 301 297 294 295 294 294 293 293 294 293 292 292 291 291
305 305 305 306 305 305 307 308 308 308 308 308 307 308 308 308 307 307 308 309 309 305 303 303 303 304 305 303 301 304 308 304 304 306 302 305 309 306 309 315 315 309 309 313 313 312 308 302 299 299 301 304 304 303 303 304 307 309 308 307 311 307 302 306 304 299 303 301 298 300 303 306 304 305 309 300 293 295 293 293 295 293 292 292 292 292 292 291
304 304 305 305 305 305 306 307 307 307 307 307 307 307 308 309 308 308 310 310 311 310 304 301 302 302 301 302 302 304 305 304 304 303 301 303 306 306 306 305 306 306 309 309 309 310 306 298 296 301 302 303 305 305 304 305 307 310 309 305 306 305 301 302 301 300 306 306 299 299 307 313 309 308 309 304 299 299 295 295 298 294 292 292 292 292 291 291
303 304 304 304 305 305 305 308 307 305 307 306 305 308 309 311 309 306 311 317 315 312 308 303 303 303 302 303 303 302 304 305 302 300 301 301 302 304 305 304 302 304 310 308 305 306 302 297 297 302 304 303 304 304 303 303 306 309 307 301 301 302 300 301 302 302 307 308 299 298 305 309 307 305 305 302 302 302 300 301 303 297 293 293 293 292 292 292
304 304 304 304 305 305 306 309 307 306 308 306 306 308 308 308 307 304 311 319 313 307 308 306 303 304 304 301 301 304 305 304 301 301 301 300 300 302 305 309 305 305 307 306 306 307 301 299 299 301 303 302 302 305 303 302 308 310 303 298 300 301 301 301 300 301 304 303 299 297 300 305 306 306 302 299 303 306 306 308 309 304 299 296 294 293 292 292
303 303 304 304 305 306 307 308 307 308 309 308 306 306 307 306 306 309 312 311 307 305 307 306 303 303 305 301 300 307 306 303 305 303 299 298 301 303 307 311 310 310 305 303 309 310 301 303 304 302 303 302 304 305 302 302 305 306 299 298 300 299 300 300 300 304 301 299 304 301 298 304 309 307 302 299 304 309 311 312 313 312 309 304 299 296 293 291
303 304 304 304 305 306 307 306 307 309 310 308 304 305 308 305 307 314 313 305 304 306 306 305 303 304 307 304 303 309 305 303 307 304 299 299 299 303 306 307 309 310 302 302 311 309 300 302 302 302 305 306 305 301 299 302 302 300 297 298 299 298 300 299 302 305 300 301 309 305 298 303 310 309 306 304 305 310 314 315 315 314 313 310 307 303 297 291
303 305 303 304 305 305 306 306 306 308 309 307 305 306 307 308 319 322 310 305 305 306 306 304 304 306 309 308 306 307 304 305 307 304 303 302 301 304 302 301 307 309 306 307 309 305 300 298 299 302 303 302 302 298 296 299 300 298 298 299 300 299 298 299 302 302 302 308 310 302 297 301 308 310 310 308 306 308 311 311 313 314 312 311 308 303 299 294
303 304 304 305 304 305 307 306 306 306 306 306 305 306 307 312 325 322 304 304 306 305 307 305 306 310 311 308 306 308 307 307 307 306 307 306 307 312 305 304 310 311 317 319 308 303 301 300 302 302 300 298 299 300 296 296 298 298 299 302 303 304 300 302 306 303 306 316 308 298 298 300 305 310 311 310 306 305 306 305 308 310 308 307 304 299 296 295
303 304 305 305 304 305 306 306 306 305 305 307 305 310 317 311 315 316 307 307 307 306 307 306 306 310 309 306 304 306 306 306 307 308 308 307 309 309 304 307 309 309 322 320 308 308 306 303 302 299 298 298 299 302 299 298 301 300 301 307 309 312 311 311 313 309 311 313 301 297 300 300 303 306 306 307 305 303 303 302 303 304 303 305 303 299 296 293
303 305 306 304 303 304 305 305 306 305 307 308 307 317 327 316 310 312 312 310 305 304 305 304 305 306 306 307 305 302 302 303 306 306 304 303 305 303 299 301 302 303 311 308 305 313 312 305 301 299 300 297 297 304 303 301 302 300 302 310 312 312 313 315 314 309 309 308 297 295 300 301 305 306 304 305 304 302 301 300 300 300 301 303 300 296 294 293
303 306 305 304 303 304 305 305 305 307 307 307 312 317 315 312 310 307 311 313 306 304 305 304 306 304 303 306 304 301 303 303 302 303 304 304 305 305 302 299 298 303 309 306 303 308 311 309 303 301 301 297 296 300 301 302 303 300 300 303 309 312 311 312 314 312 310 307 300 296 301 308 312 308 303 302 302 300 299 298 298 299 297 295 296 296 296 296
304 306 305 303 303 304 304 304 305 307 306 313 324 319 310 313 312 307 312 313 305 305 305 302 304 305 307 308 304 300 301 303 302 302 305 306 305 308 305 301 300 303 308 309 307 304 306 307 302 297 297 296 298 297 295 300 303 299 296 300 307 310 309 308 307 305 303 304 304 301 303 307 308 304 302 302 301 301 302 301 303 306 301 297 300 300 298 298
304 306 305 302 302 305 303 303 306 305 309 323 326 316 318 318 306 305 310 306 303 304 303 305 306 307 311 310 307 304 300 301 304 303 305 306 305 305 304 302 300 300 301 306 310 306 305 306 301 297 297 295 296 296 295 300 303 299 299 304 303 299 304 306 302 298 297 303 307 303 304 305 304 306 307 306 306 305 305 305 306 308 305 301 301 299 297 297
306 306 304 301 303 306 303 304 306 305 314 324 316 312 320 312 300 305 308 302 301 301 301 308 308 306 310 308 309 309 301 300 304 305 305 306 304 304 305 302 297 298 299 300 304 302 303 308 302 297 299 296 293 296 296 296 300 302 303 304 299 295 301 305 302 304 305 307 306 303 306 308 306 310 311 307 307 306 305 305 305 304 302 299 298 297 296 296
307 307 304 302 304 305 305 306 305 309 319 318 311 313 313 305 301 304 304 301 301 301 302 306 304 303 308 308 308 306 302 304 308 307 307 306 303 303 305 304 298 297 297 297 301 302 302 308 305 296 298 299 294 297 300 296 295 300 301 299 298 300 306 305 302 307 308 306 307 304 304 305 306 310 311 305 304 304 302 303 302 300 298 297 296 295 295 295
306 309 308 304 304 306 306 305 306 314 318 312 314 315 306 304 305 301 302 301 300 302 304 304 302 302 306 307 307 304 301 304 306 305 305 305 303 301 301 303 300 298 298 297 301 303 300 304 307 299 296 298 297 299 305 302 296 296 298 297 298 301 305 305 301 304 306 305 307 305 303 305 308 309 308 303 302 301 300 299 298 297 296 296 295 295 294 294
303 310 311 303 303 308 305 304 313 321 313 308 316 313 303 304 305 299 300 302 300 301 303 303 302 303 305 305 303 302 301 303 304 303 304 304 303 302 299 301 302 300 298 298 299 302 301 302 307 304 297 298 301 301 304 306 303 301 301 301 301 299 300 300 298 301 305 306 307 306 304 306 307 305 305 303 301 299 298 297 296 296 296 295 295 295 294 294
304 313 314 304 303 306 304 307 317 316 310 307 310 308 304 305 303 300 300 299 299 299 299 302 303 303 305 304 301 300 302 305 304 303 305 304 303 303 298 295 301 300 298 300 299 301 301 301 307 307 302 303 304 298 296 300 302 305 307 306 305 303 302 302 301 299 300 303 306 305 303 304 306 305 303 301 299 297 297 296 295 296 295 295 295 295 294 294
307 312 310 304 303 304 306 311 307 302 310 309 304 304 305 304 301 301 301 299 298 298 297 300 303 303 304 303 301 302 303 306 305 304 305 303 301 303 296 289 293 297 298 301 300 298 300 301 304 306 303 302 299 293 293 296 296 299 301 300 302 304 305 306 306 302 299 298 299 299 300 303 303 304 303 301 297 296 296 295 296 295 295 295 295 294 294 294
311 310 306 303 304 304 307 310 304 305 312 306 298 301 303 302 302 301 301 301 300 299 300 302 302 302 302 301 301 302 301 303 306 305 305 304 301 299 292 287 291 296 298 300 299 297 300 302 302 305 306 301 296 293 293 294 294 297 298 297 299 302 302 303 303 301 300 299 299 299 301 302 300 301 303 301 297 295 296 296 296 295 294 294 294 294 293 293
312 307 306 304 302 304 307 308 305 309 316 306 301 303 301 299 301 300 301 303 301 301 304 305 302 300 301 300 301 302 300 301 304 301 301 306 303 294 287 287 292 298 299 299 300 297 300 305 304 304 307 306 304 304 301 298 296 298 299 296 296 298 299 298 296 296 299 301 300 301 302 301 301 300 300 299 296 295 296 295 295 294 294 293 293 293 293 293
307 304 307 306 302 302 306 309 309 312 318 313 306 303 302 301 300 300 302 303 301 301 303 303 300 300 301 300 301 302 301 301 302 300 299 302 301 294 290 289 292 299 296 293 295 297 300 304 303 303 306 306 307 309 308 305 301 299 298 297 295 296 297 299 300 298 299 300 299 301 302 300 300 300 298 297 297 295 295 295 294 294 293 293 293 292 292 292
304 305 311 313 308 305 302 302 310 315 315 313 305 301 303 304 301 298 299 301 300 299 300 300 299 300 301 301 303 305 303 300 300 300 302 304 302 297 292 289 291 295 293 291 294 298 300 300 300 304 307 305 305 304 301 301 301 299 299 299 298 296 295 298 301 301 301 299 298 300 300 298 298 298 297 297 296 294 295 294 294 293 293 292 292 292 292 292
304 306 307 309 310 310 305 303 309 311 305 304 301 300 303 304 301 297 297 299 299 298 299 299 299 300 301 302 304 305 303 301 300 300 301 304 303 296 290 289 292 292 293 294 295 297 301 301 300 302 303 301 301 300 297 297 298 297 297 298 299 298 295 296 298 299 300 300 299 299 299 298 298 297 296 296 294 294 294 293 293 292 292 292 292 292 292 292
303 304 301 299 302 306 303 303 307 308 302 301 301 300 303 306 304 302 299 298 298 298 298 300 300 301 302 302 301 303 304 303 302 302 302 302 302 299 294 293 292 291 292 294 295 298 303 302 298 298 300 300 298 297 296 296 296 296 297 297 298 297 296 296 297 297 297 297 298 298 298 298 297 296 295 294 294 294 293 292 292 292 291 292 291 291 291 291
302 304 299 296 300 305 303 300 304 308 304 303 303 301 303 308 306 302 299 299 300 298 297 300 302 301 303 302 300 302 306 303 301 303 304 302 301 302 300 298 295 291 292 295 295 296 300 304 299 296 299 300 297 297 296 296 297 298 297 297 296 295 296 295 295 295 294 295 295 295 295 295 294 294 294 294 294 293 292 292 291 291 291 291 291 291 291 291
305 306 302 300 302 304 302 300 303 305 302 301 302 300 302 308 307 301 298 300 301 299 297 300 302 303 304 303 300 302 305 303 299 300 302 302 301 302 303 301 299 295 294 296 296 292 295 301 299 296 300 301 300 299 297 296 297 297 298 299 297 296 296 295 294 294 294 296 295 294 293 294 293 294 294 293 293 292 291 291 291 291 291 291 291 291 291 290
302 300 301 306 305 302 304 303 301 304 304 302 302 301 302 306 304 300 300 300 301 301 300 302 305 304 301 301 302 304 304 301 299 299 299 300 300 300 299 298 301 303 299 296 295 294 295 298 296 297 302 303 301 300 298 295 294 296 299 300 298 298 298 298 298 298 297 297 297 296 296 295 295 294 293 292 292 292 291 291 291 291 291 291 291 291 290 290
301 298 299 304 303 302 304 303 299 301 304 305 303 301 302 305 302 300 301 303 301 301 300 302 304 303 302 305 305 303 300 297 296 296 295 296 298 298 297 296 300 305 302 297 295 293 295 299 299 298 302 305 302 298 296 296 298 300 298 297 297 297 298 298 299 297 296 295 296 297 297 295 294 293 292 292 291 291 291 291 291 290 290 291 291 290 290 290
Wind_Speed
11 10 10 9 9 8 8 8 7 8 8 6 5 3 1 2 2 3 3 4 3 3 3 3 3 4 5 4 5 4 5 7 12 18 15 10 15 14 11 9 9 10 8 6 4 1 2 7 7 6 4 5 5 3 3 3 3 4 3 3 2 4 4 6 7 6 4 3 5 5 4 6 4 3 2 2 3 2 0 1 1 2 2 2 5 3 14 27
10 9 9 9 8 8 7 7 6 7 8 6 5 3 2 2 3 3 3 3 4 5 5 4 4 5 6 6 6 5 4 4 10 17 14 13 15 12 9 7 8 9 7 6 4 3 3 3 4 6 6 3 4 3 2 3 4 3 3 3 3 5 4 4 7 6 2 3 6 4 3 4 5 5 4 3 1 0 2 3 2 3 3 1 2 11 21 27
10 9 8 8 8 8 7 6 6 7 7 6 5 4 3 3 3 3 3 2 3 5 6 6 6 6 7 7 7 5 3 3 6 9 14 14 13 10 8 7 8 8 6 4 4 3 5 3 4 6 5 4 2 3 3 4 3 2 3 2 4 5 3 2 5 6 3 4 7 4 3 3 3 4 3 3 3 2 5 6 3 5 6 3 6 15 21 23
9 9 8 8 8 8 7 6 6 6 7 6 6 6 6 5 4 4 3 2 3 5 7 7 6 6 6 8 7 4 3 5 4 7 14 15 12 11 8 6 8 8 4 2 3 4 6 6 7 6 5 3 4 3 3 3 1 2 3 2 4 3 3 2 4 4 2 3 6 5 4 2 3 3 3 5 4 4 7 8 8 9 9 7 7 14 20 21
9 9 8 8 8 8 7 7 6 6 6 7 7 8 8 7 6 5 4 3 4 5 7 7 6 4 5 10 8 3 2 4 4 9 16 15 11 11 8 7 9 6 2 1 3 6 6 5 7 7 5 3 5 4 2 3 1 3 2 2 4 2 3 1 1 3 4 4 5 6 5 4 3 2 4 8 6 6 6 7 9 7 7 11 13 17 18 19
9 9 8 8 8 8 8 7 6 6 6 7 8 8 8 8 6 4 3 3 4 5 8 8 5 4 4 7 7 2 2 2 5 12 16 14 11 11 7 7 9 5 1 3 3 5 4 5 7 4 4 3 3 3 1 4 2 3 1 1 1 1 3 0 1 1 3 6 6 5 4 4 5 3 3 8 10 7 4 4 6 5 7 14 18 19 16 17
9 9 9 8 8 7 7 6 6 6 6 7 6 6 9 10 8 5 2 2 3 5 9 8 6 4 4 4 4 4 5 2 8 14 16 12 10 11 5 6 9 4 1 3 3 4 4 7 6 3 4 4 1 2 1 5 4 6 2 1 1 2 3 2 2 1 2 5 5 3 3 4 6 4 1 6 13 7 3 3 5 6 9 14 14 16 17 19
9 9 9 8 7 7 7 6 6 6 5 6 5 3 6 10 8 6 5 4 4 6 11 9 4 4 3 3 0 4 4 2 9 15 14 10 9 10 5 4 7 2 2 4 4 5 4 5 4 4 4 2 3 2 2 3 5 5 3 2 2 4 2 2 2 2 2 2 1 3 3 3 5 3 0 9 13 6 3 1 3 5 9 13 11 13 17 19
9 10 10 9 7 7 6 5 6 5 5 5 5 4 5 8 8 6 5 4 5 7 10 11 5 2 3 1 4 3 3 3 10 15 12 9 7 8 7 7 7 1 4 6 4 4 2 2 4 4 4 3 4 2 2 2 2 2 3 2 3 3 3 1 2 4 2 1 2 4 3 5 2 1 5 11 9 3 3 4 3 6 8 9 8 11 16 17
10 10 10 8 7 6 5 5 5 6 6 5 5 4 5 7 7 5 3 3 5 6 8 11 8 3 2 1 5 4 3 5 10 14 10 7 4 5 9 12 10 6 6 7 6 5 0 6 7 6 7 4 3 2 3 2 2 2 5 5 5 2 3 2 2 3 2 0 1 2 4 4 2 2 5 6 2 4 4 3 2 5 7 7 6 10 16 18
11 11 10 8 7 5 5 5 6 6 7 6 5 4 5 7 6 4 2 1 3 5 7 9 8 4 3 3 6 3 3 6 10 13 9 5 5 7 11 13 11 9 6 7 8 6 3 10 11 7 4 2 3 4 4 2 3 3 5 4 6 5 2 3 2 2 3 0 2 2 3 3 1 2 7 4 2 4 4 4 3 5 6 6 6 7 12 18
11 11 9 7 6 5 6 6 7 7 6 6 4 4 5 6 5 4 3 2 3 4 6 7 7 1 4 8 5 1 3 7 9 10 6 5 8 10 11 10 11 12 7 7 7 7 9 10 11 7 1 4 4 3 2 2 3 3 3 2 5 7 3 3 1 2 3 1 3 2 4 3 5 9 9 1 2 3 3 5 4 5 5 4 6 5 8 16
11 10 7 6 6 5 6 6 6 6 5 4 3 4 5 5 5 4 4 4 4 5 6 5 6 2 2 4 1 1 3 6 8 5 4 7 8 9 11 9 10 13 11 11 9 9 9 5 10 9 2 6 3 1 4 4 3 1 3 3 2 6 4 5 2 2 2 1 1 1 4 5 8 13 8 1 4 4 3 6 5 5 5 4 5 4 6 13
10 8 7 6 6 6 5 5 4 5 4 3 4 5 6 6 6 4 4 5 5 6 5 3 4 2 3 1 2 2 4 4 8 7 8 7 6 6 9 8 10 14 14 15 14 11 9 8 14 10 3 4 3 2 5 5 4 1 2 2 1 2 4 5 1 1 0 1 3 3 4 8 9 11 6 3 5 6 6 8 6 6 5 5 5 5 6 11
8 7 8 7 6 6 4 4 3 4 3 2 4 6 8 9 6 4 3 2 4 4 3 2 3 1 4 2 2 2 5 6 11 13 12 8 5 4 5 7 10 13 15 15 14 12 10 9 10 6 1 2 3 5 4 4 3 3 1 3 2 1 5 7 2 2 2 1 4 3 4 9 11 9 4 4 5 7 8 9 8 8 7 6 5 6 6 8
7 7 8 7 7 6 4 4 3 4 2 1 2 7 10 11 6 3 3 2 3 3 3 4 2 3 5 1 1 2 5 7 12 12 10 9 8 5 3 6 8 9 11 11 9 8 10 9 5 3 2 2 5 6 3 3 3 3 1 3 2 2 3 6 2 1 2 1 2 1 3 7 9 5 1 3 6 6 7 10 9 9 9 7 6 6 5 6
7 7 8 7 5 5 5 5 3 3 2 3 6 11 13 10 6 2 4 3 3 2 1 2 0 4 4 1 1 2 5 7 11 10 8 8 9 7 3 4 6 7 7 7 6 6 9 8 1 1 3 3 3 4 3 2 4 3 2 2 3 3 2 4 3 2 2 1 2 2 4 12 14 7 2 4 6 6 8 12 11 9 9 6 6 6 5 6
7 7 7 5 4 5 5 4 4 4 5 8 12 15 13 7 3 3 3 5 4 2 1 2 2 4 2 3 1 4 8 8 10 10 8 6 6 8 7 5 4 5 5 5 6 6 5 4 2 1 3 3 3 5 3 4 4 2 2 2 3 2 3 4 4 2 2 0 4 2 5 16 20 14 9 6 6 8 11 12 10 9 8 6 6 6 7 7
8 7 6 4 3 5 5 6 8 9 10 12 12 11 7 4 2 4 3 1 1 1 1 2 2 3 1 3 4 7 7 5 7 9 10 8 5 5 8 8 4 4 4 1 3 5 3 3 3 1 1 2 0 4 6 6 5 5 4 3 3 4 4 5 4 3 0 2 6 7 8 16 19 17 12 7 7 9 12 11 9 8 7 6 5 6 7 6
8 7 6 5 5 7 8 9 11 11 11 10 8 5 2 1 2 4 5 7 2 1 1 1 1 2 0 2 6 9 4 1 4 9 13 12 5 3 5 8 7 6 4 1 3 3 4 2 1 4 5 4 4 4 5 5 5 5 4 2 3 3 5 5 2 4 1 1 7 7 8 15 19 19 14 6 6 8 10 10 10 10 8 7 7 8 8 8
8 8 6 6 7 8 9 11 12 11 10 8 4 1 1 2 2 1 2 3 1 1 3 1 2 0 0 1 6 8 2 1 3 9 15 12 4 2 3 5 6 4 2 1 3 2 5 1 4 5 6 5 4 4 5 5 5 4 4 1 2 3 6 5 0 3 2 0 6 4 5 14 19 20 12 4 6 9 10 11 12 11 9 8 8 10 9 8
8 8 7 8 8 9 9 10 12 10 6 5 3 5 3 3 4 2 2 1 1 2 3 1 0 2 1 0 5 6 3 4 3 8 16 13 5 2 2 4 5 0 3 2 2 5 4 3 5 4 5 5 5 4 5 5 5 3 3 1 3 3 4 5 2 3 2 1 5 4 5 14 20 19 10 5 8 7 7 9 9 9 9 9 8 9 9 9
9 8 8 8 8 8 8 9 10 8 4 4 6 7 5 4 4 2 2 3 1 2 3 3 2 3 3 2 5 6 5 3 2 6 15 12 4 3 2 4 4 1 3 3 2 0 2 5 3 3 4 6 5 3 5 4 2 2 3 1 4 3 1 4 3 3 2 3 5 6 6 10 15 13 7 3 4 3 3 5 6 6 8 9 7 7 8 10
11 10 9 9 9 8 7 7 6 5 6 7 8 7 5 3 2 2 2 2 1 1 1 1 1 1 2 2 5 5 3 1 1 5 13 9 2 2 3 4 3 2 1 1 5 4 4 3 3 4 3 5 4 1 4 3 2 2 4 4 5 3 2 5 3 5 4 2 3 6 7 6 6 7 5 3 3 3 3 4 6 6 6 6 5 7 9 10
12 12 11 11 10 8 7 6 3 2 5 6 6 5 3 2 1 1 3 3 2 3 2 0 1 1 1 3 6 2 2 1 1 4 8 6 2 1 2 2 1 1 2 3 5 3 3 2 4 5 3 4 4 2 3 4 1 4 4 7 6 3 2 3 4 5 4 3 2 4 6 5 3 5 7 3 5 5 3 3 7 7 5 5 7 10 10 10
14 13 12 12 10 9 7 3 1 1 2 3 3 2 2 3 2 2 3 4 2 4 3 1 1 2 1 4 6 1 2 2 2 3 5 5 1 2 2 1 1 1 4 4 2 2 1 1 2 4 4 4 3 2 5 5 4 3 3 4 5 3 1 4 4 3 1 3 3 3 0 5 5 6 7 5 7 9 5 4 7 5 5 6 8 10 9 9
14 13 13 13 11 10 6 1 1 1 1 0 1 1 0 2 2 1 3 5 3 1 2 2 1 2 1 3 4 1 0 4 2 2 4 4 3 1 1 2 0 1 2 3 1 2 3 3 2 3 4 3 1 3 5 7 6 3 3 3 3 1 4 2 1 1 2 3 3 1 3 3 5 6 6 5 7 9 7 6 7 5 6 7 9 9 9 10
13 13 13 13 11 8 5 2 2 1 0 1 2 1 2 2 3 1 4 3 2 1 1 2 0 2 2 2 3 3 1 3 2 1 4 4 3 2 1 3 5 3 1 3 4 4 2 4 5 5 4 2 4 4 6 8 3 3 3 2 2 1 1 2 4 2 1 3 4 2 2 2 5 6 4 3 4 7 7 6 6 5 5 6 8 9 10 10
14 13 13 13 10 7 5 4 2 0 1 1 2 2 4 4 2 3 5 1 1 1 0 1 1 2 4 3 4 4 1 2 2 3 5 4 2 4 2 2 6 5 0 2 4 4 0 3 6 6 4 5 4 2 4 5 1 2 4 3 4 4 3 3 3 2 2 2 4 4 1 1 4 6 4 2 2 3 6 5 5 6 6 6 7 8 8 7
15 13 13 12 9 6 5 4 3 2 1 1 1 3 5 3 3 6 2 2 1 1 1 1 1 3 6 4 4 5 3 2 3 4 4 1 2 6 3 2 5 6 1 3 1 3 1 1 2 3 2 4 3 1 1 3 2 3 3 2 2 4 3 2 2 3 3 2 5 4 1 1 2 5 4 1 1 2 3 4 5 5 5 6 5 6 6 6
15 14 13 12 10 8 5 2 4 3 2 1 2 3 3 3 5 5 1 3 0 2 1 2 2 4 7 3 2 4 4 4 5 4 3 2 3 6 3 0 3 3 3 4 2 3 3 1 1 1 1 3 4 3 1 2 2 2 2 2 2 3 3 3 3 3 2 4 5 3 2 1 1 5 4 4 5 4 3 5 7 6 7 8 6 5 6 5
15 13 12 12 10 8 5 2 2 3 2 2 3 3 4 3 2 1 3 3 2 2 1 1 2 3 5 2 1 3 3 3 4 4 2 2 2 3 3 1 1 3 4 2 2 5 2 2 2 2 0 2 3 1 2 3 3 3 2 3 3 4 3 3 3 1 2 4 2 2 2 0 4 8 9 9 10 6 5 6 6 7 8 9 9 8 7 6
13 12 10 10 9 7 5 3 2 2 2 3 3 4 7 4 1 3 2 3 1 2 1 0 2 2 2 3 1 2 2 1 3 4 1 0 1 2 2 1 2 1 2 2 2 4 3 3 2 1 1 1 2 3 1 2 1 1 1 2 1 1 3 4 4 3 4 3 2 2 2 2 4 7 7 9 9 5 3 4 5 6 7 8 9 9 9 9
12 9 7 7 7 5 4 2 2 2 3 3 4 5 5 1 3 2 2 3 2 2 1 0 3 2 1 1 2 2 1 1 2 3 1 2 2 2 2 2 0 2 3 1 1 1 1 4 1 1 1 2 1 2 2 2 2 2 2 4 3 3 1 4 4 3 6 4 2 3 2 2 3 4 4 5 7 5 3 3 3 4 5 6 7 8 8 9
11 7 5 6 7 5 4 3 2 3 3 3 6 6 3 3 4 2 3 4 1 2 1 0 3 3 3 3 2 1 1 1 2 2 2 1 1 1 1 2 1 2 3 1 2 1 1 4 2 1 2 1 1 1 2 3 2 1 1 3 1 3 3 2 3 3 2 4 3 2 2 4 4 6 6 4 3 3 3 3 4 5 4 4 6 7 7 8
8 4 3 6 6 5 5 4 2 3 2 4 6 3 4 4 2 3 3 1 0 1 1 3 3 2 4 4 3 3 1 1 3 3 1 1 2 2 1 2 1 1 2 2 2 0 1 4 3 3 2 2 1 2 1 1 1 0 1 1 3 3 5 1 2 1 3 2 4 1 2 5 4 6 7 5 5 5 6 6 7 7 7 6 7 7 7 8
6 1 2 6 7 5 5 4 2 2 3 7 5 2 5 2 1 3 2 0 0 1 2 2 2 1 2 3 3 4 2 2 3 2 2 2 1 2 2 1 1 0 1 1 2 1 1 3 4 2 1 1 1 1 2 2 2 3 1 3 2 2 4 3 1 4 3 2 5 1 3 5 3 4 5 7 8 8 7 8 8 8 8 8 8 8 9 9
4 1 2 6 7 5 4 4 2 2 5 6 1 3 3 1 0 1 1 0 0 1 3 1 2 0 1 1 3 3 3 3 3 2 1 2 0 3 3 1 1 1 2 0 0 0 2 2 6 1 1 3 2 1 2 3 3 3 3 2 1 1 1 1 0 2 2 3 6 3 2 2 3 4 3 5 6 7 7 8 9 9 9 8 9 10 11 10
4 1 2 5 6 4 3 2 2 5 5 3 2 2 1 1 1 0 1 1 1 1 1 2 1 1 2 3 2 3 2 2 1 1 0 1 1 1 2 1 1 1 3 1 2 1 2 1 4 3 2 2 3 1 2 2 3 3 1 2 2 3 3 1 1 2 1 3 5 3 1 2 5 5 3 4 5 4 6 8 7 9 9 7 8 9 10 10
3 1 1 5 5 3 3 3 3 6 4 1 3 2 1 2 1 1 1 0 1 1 1 2 1 0 2 3 2 1 1 0 2 1 1 2 1 1 2 1 1 2 2 1 2 0 2 2 4 4 2 1 1 2 4 4 2 2 1 1 1 0 1 1 1 2 2 2 3 4 4 4 4 4 4 4 4 5 6 7 6 8 9 7 7 8 9 10
3 2 3 6 5 1 2 5 4 3 2 1 2 2 1 0 1 1 2 1 1 0 1 3 3 2 2 1 1 1 0 0 1 1 2 2 1 1 2 2 0 1 0 1 1 0 1 2 3 3 4 2 3 2 3 5 5 4 3 4 3 2 2 1 3 1 2 2 4 3 7 7 4 3 4 1 4 5 5 6 7 10 11 10 9 9 10 10
4 2 2 6 5 2 3 4 1 1 2 1 1 1 0 1 1 0 1 1 1 0 1 2 2 2 2 1 1 2 1 1 1 1 2 3 2 1 1 1 3 2 1 1 1 1 1 3 1 4 5 3 2 2 0 2 4 4 2 2 3 3 4 3 4 3 0 1 2 1 4 7 4 3 3 2 3 3 6 7 10 13 12 11 11 11 12 11
2 1 1 6 5 1 4 3 3 3 0 2 1 0 0 1 1 0 0 1 0 1 1 1 2 1 1 1 1 2 2 2 3 3 2 3 2 2 2 3 4 2 1 1 1 0 1 2 1 4 5 3 3 3 2 2 3 2 1 1 3 2 3 5 4 3 2 2 1 1 4 5 3 2 4 3 1 5 8 10 13 13 12 12 11 12 12 11
2 2 1 6 6 0 2 0 2 3 3 2 3 1 1 1 2 1 1 2 1 2 1 1 1 1 0 1 1 2 2 1 2 2 1 2 2 1 1 3 3 0 1 1 2 0 1 0 1 3 6 6 5 5 5 4 0 2 1 0 2 3 5 2 2 3 1 5 6 4 7 4 2 3 5 5 6 10 11 11 12 13 13 12 12 12 12 11
1 0 2 6 7 5 2 3 4 2 2 2 3 2 2 1 1 1 1 1 1 2 1 1 1 1 1 2 1 1 1 1 2 2 1 1 3 1 1 3 2 0 0 2 1 0 2 1 2 0 3 4 5 5 3 2 2 1 1 1 3 3 5 2 1 2 2 5 6 5 8 8 6 10 11 9 9 12 13 13 14 13 13 12 12 13 12 11
2 1 3 5 7 7 2 1 4 3 1 1 1 2 1 0 2 0 1 2 1 2 1 0 1 1 2 1 0 2 2 1 0 1 1 2 4 2 1 2 1 1 1 3 1 3 2 1 2 5 6 7 8 6 1 2 2 4 4 4 5 4 5 4 2 2 3 2 3 6 9 13 15 14 11 9 10 12 12 13 14 14 13 13 12 12 12 10
2 1 1 2 3 4 4 3 4 3 1 2 1 1 1 2 3 2 0 1 0 1 0 1 1 1 2 2 1 2 2 1 1 0 2 3 3 3 1 1 1 2 3 2 0 4 4 2 3 6 9 11 9 7 3 2 3 7 6 6 6 4 5 5 5 7 3 1 4 7 7 11 16 14 11 11 11 11 11 12 13 13 13 13 12 13 12 9
2 1 1 1 1 1 2 3 2 4 2 1 1 1 1 2 3 1 1 1 1 0 1 0 1 3 5 4 2 1 1 1 1 2 2 2 3 3 2 1 1 4 4 2 2 3 5 3 3 3 8 11 8 9 8 3 5 5 4 8 8 4 7 8 10 10 4 3 9 11 9 12 15 15 13 11 10 11 12 12 12 13 13 13 15 14 11 9
2 1 0 2 0 2 1 2 2 4 3 2 1 1 1 2 3 3 2 1 2 1 1 1 4 4 4 3 2 2 2 1 2 4 2 2 2 1 2 1 1 3 3 3 3 1 4 3 2 1 6 11 9 8 6 3 3 4 5 8 7 6 9 9 10 10 7 9 14 15 15 16 14 13 11 9 9 10 10 11 12 14 14 15 16 14 10 10
1 2 1 2 2 1 1 2 2 3 1 1 0 1 2 4 3 3 1 2 1 2 1 3 5 3 2 3 4 4 6 5 3 4 4 2 2 2 2 2 2 2 3 2 1 1 1 2 1 2 4 9 6 4 3 3 3 4 7 7 4 3 5 5 6 6 5 8 12 11 13 13 9 7 9 10 10 9 10 12 14 14 15 16 15 12 10 12
2 3 3 3 1 1 1 1 2 3 1 1 1 1 1 3 5 2 1 2 2 2 4 5 4 1 2 1 4 7 7 6 5 5 5 3 2 3 2 1 4 3 1 1 0 1 1 1 1 4 3 6 3 6 6 2 2 2 5 7 6 3 2 3 4 5 5 8 10 7 6 7 5 6 10 12 11 11 11 13 13 14 17 17 12 9 10 15
3 2 2 4 1 1 1 1 2 2 1 2 2 1 1 3 3 1 1 1 1 1 4 6 5 2 0 2 5 7 5 4 4 4 2 3 1 2 2 2 4 5 4 3 1 1 2 2 1 2 1 6 4 6 8 5 4 1 1 4 6 5 4 4 4 5 6 6 5 5 4 5 7 10 13 15 15 14 12 11 12 15 17 14 9 8 13 18
Wind_Direction
38 44 47 49 48 48 47 48 53 50 56 66 74 85 52 45 8 0 7 10 16 20 26 6 347 337 337 342 344 340 352 29 50 50 49 14 352 345 339 348 358 2 3 8 37 111 27 27 40 66 79 49 16 347 36 33 55 57 78 98 155 175 199 188 177 191 161 178 199 202 193 146 169 198 175 144 55 75 154 304 250 307 313 270 280 239 168 167
33 38 42 46 45 44 42 40 49 47 51 56 57 58 29 5 334 347 356 20 52 47 42 18 356 335 331 326 311 320 326 357 43 40 25 0 352 344 338 354 356 355 359 10 41 76 63 8 14 57 59 44 356 357 36 6 50 81 110 107 209 190 196 196 169 175 163 159 170 183 191 170 182 171 154 182 243 70 185 246 293 301 297 2 147 152 159 165
27 31 34 40 39 37 35 32 39 44 45 46 43 36 21 1 340 348 351 26 49 31 27 14 1 349 342 326 302 289 287 24 45 14 1 357 351 344 344 354 352 351 350 2 36 77 103 102 78 73 57 51 8 5 36 10 27 118 112 99 235 202 192 223 176 179 204 150 146 172 187 192 207 160 156 190 196 199 211 216 197 243 236 184 160 158 161 167
22 25 27 33 35 31 28 25 27 34 36 34 29 15 360 345 329 323 330 334 352 1 4 1 356 358 7 358 341 265 233 56 37 329 352 355 348 348 347 349 350 345 339 10 55 98 115 96 75 69 67 50 346 18 42 344 350 106 98 153 226 186 124 195 191 179 183 136 143 154 141 199 215 161 172 160 156 237 240 221 199 212 205 178 180 173 170 173
21 24 26 29 30 27 24 20 19 26 26 23 14 3 354 340 322 306 302 303 319 336 344 346 344 346 11 11 3 269 217 58 343 336 356 351 346 348 343 346 347 339 331 101 91 110 118 81 63 51 58 49 348 28 37 310 57 74 49 167 204 168 110 153 199 146 127 95 111 136 153 186 159 152 185 166 187 229 227 221 208 206 186 174 179 179 178 182
25 27 25 25 27 25 21 15 18 24 22 20 12 12 16 5 355 336 299 293 311 326 337 331 319 308 322 3 10 337 116 94 329 350 355 348 347 348 344 341 346 347 321 163 126 109 103 49 57 50 51 58 9 61 2 302 38 83 41 75 221 185 109 351 312 140 124 115 140 165 181 149 140 233 196 182 219 221 201 217 210 219 195 180 174 175 180 190
28 24 16 16 21 21 17 10 15 20 20 22 14 27 37 28 27 29 22 359 341 346 347 325 295 270 268 331 14 42 84 105 337 352 351 355 353 350 353 340 355 357 236 157 127 115 98 55 76 121 78 71 152 110 346 317 34 83 110 23 6 70 80 317 303 183 138 147 185 176 148 148 179 226 98 210 233 221 214 237 220 228 191 175 172 179 189 195
21 14 4 6 11 14 13 5 11 15 15 21 11 13 25 21 27 39 57 62 29 9 1 348 294 235 252 296 351 45 43 312 337 350 351 4 6 5 13 354 5 337 177 100 116 143 125 75 116 154 83 84 158 106 341 348 40 72 132 191 63 51 32 333 58 96 116 133 183 131 158 226 208 207 204 236 239 219 193 139 174 184 167 172 181 191 195 200
10 1 355 358 3 6 5 2 11 12 8 12 0 328 338 4 17 32 55 60 24 9 9 15 14 221 238 284 92 64 331 316 343 344 353 16 25 30 40 37 29 45 106 73 87 130 153 148 171 176 134 150 130 81 332 48 51 100 122 133 87 38 321 326 78 61 70 86 85 141 219 278 258 279 269 247 237 192 140 91 114 146 163 186 192 198 199 204
360 353 351 352 355 0 1 6 12 9 5 4 351 332 333 353 6 18 42 39 7 1 6 15 22 27 244 258 76 70 318 3 351 342 0 24 34 56 51 44 41 53 81 66 66 63 333 180 169 149 129 121 104 52 348 83 119 115 103 94 73 16 305 31 88 33 20 110 99 174 246 272 298 319 263 259 195 144 132 115 142 160 185 202 198 207 205 210
354 351 350 349 356 3 10 23 20 11 7 2 346 332 335 341 354 1 1 346 341 349 356 2 12 40 87 79 90 99 358 11 353 351 6 30 55 56 45 36 38 52 73 71 62 43 78 146 140 122 113 105 101 46 18 91 109 94 101 84 18 352 330 33 70 1 350 160 153 179 240 254 354 252 240 265 121 154 156 167 192 195 210 212 208 216 212 220
354 352 353 357 13 21 29 35 23 14 3 360 350 330 334 336 344 339 318 302 303 328 334 346 356 21 96 67 83 107 5 8 359 3 13 52 64 51 42 35 37 47 64 81 67 71 101 127 114 89 67 126 113 57 86 98 86 87 75 93 344 358 342 318 1 325 340 184 186 186 280 245 184 229 242 264 130 139 149 198 219 218 225 225 218 226 222 227
356 360 8 21 35 37 41 35 22 19 6 3 7 353 349 340 335 319 311 308 293 312 313 329 342 271 115 60 68 32 16 11 11 30 46 57 67 56 46 39 44 48 58 78 76 89 103 110 99 97 98 104 113 149 115 65 58 104 43 90 326 360 327 297 356 328 333 158 209 74 298 265 210 235 249 161 151 132 178 226 229 227 231 233 226 232 234 231
5 19 32 38 39 40 44 30 24 27 17 32 37 17 0 341 326 306 310 316 306 308 301 317 328 266 102 103 211 32 25 21 26 40 42 49 78 69 53 51 62 59 62 75 78 84 93 90 93 96 69 82 131 117 60 21 30 86 18 44 15 352 286 292 325 308 230 163 13 87 256 275 257 254 248 184 165 157 210 233 228 232 232 231 230 232 240 235
20 35 36 34 29 27 24 8 7 5 10 77 52 23 4 352 335 300 288 315 336 319 260 260 306 182 94 69 206 32 29 33 24 22 22 32 59 61 61 68 70 64 65 74 78 77 72 75 76 74 22 11 81 88 44 4 24 42 331 308 345 184 266 301 300 188 208 293 13 102 230 278 275 273 256 177 170 179 218 237 229 232 230 229 233 231 242 244
25 28 25 25 22 20 7 352 332 327 320 179 14 357 350 352 345 291 234 255 336 322 234 235 293 112 102 49 220 23 22 19 11 11 16 26 35 31 56 78 72 69 70 67 70 62 43 53 61 55 116 42 72 94 61 31 356 357 88 249 254 192 279 315 319 244 247 259 348 199 231 280 273 279 319 158 178 191 225 244 236 232 232 227 230 231 239 251
14 13 14 18 27 26 16 15 353 307 272 248 298 317 323 334 351 329 233 262 314 310 172 206 225 96 89 11 50 356 343 349 359 9 21 29 32 31 54 88 69 61 60 44 40 37 27 43 73 316 60 59 79 97 59 1 294 318 28 255 245 206 244 303 305 326 353 183 251 225 224 260 264 266 257 185 187 196 228 245 241 234 233 226 229 235 239 245
4 1 4 9 22 20 15 17 351 306 285 287 295 305 305 295 341 3 266 255 259 243 93 11 33 97 45 353 1 312 312 329 358 13 18 21 22 27 47 67 58 36 31 23 28 31 18 30 63 29 30 12 30 88 122 233 223 198 223 253 290 276 228 257 273 280 25 305 249 230 237 260 267 267 255 216 186 207 232 242 244 241 234 228 230 233 237 242
4 358 357 357 351 345 333 319 317 308 300 301 298 300 298 265 285 358 12 22 242 237 228 321 25 128 232 320 311 314 315 330 6 17 16 11 359 8 39 48 50 53 46 355 5 26 34 41 62 92 260 280 212 137 173 196 164 161 191 177 219 274 259 236 248 261 281 305 261 237 242 263 271 272 266 238 193 214 240 245 248 246 237 231 231 233 238 239
8 4 356 341 324 321 323 321 321 316 314 315 302 301 330 6 344 337 17 41 74 122 89 209 127 103 60 317 326 335 338 16 18 22 16 5 359 11 23 26 31 48 59 251 307 12 78 81 185 207 216 204 189 165 149 143 120 119 127 151 210 243 274 256 250 292 303 282 268 240 243 267 272 274 271 248 201 220 240 244 245 243 238 234 231 238 239 237
8 8 358 339 328 328 332 335 334 327 327 330 317 355 131 152 62 344 352 26 333 63 39 222 196 38 353 298 343 350 18 95 13 21 16 2 12 34 333 19 44 31 16 246 275 357 68 104 232 219 207 180 150 134 105 91 82 88 127 184 265 223 258 263 185 310 353 82 270 257 266 274 276 278 277 220 198 225 229 230 240 239 238 239 235 243 245 248
5 3 356 344 339 337 335 338 342 342 347 5 62 100 121 161 132 136 152 99 332 14 32 4 8 353 335 308 357 2 46 50 353 358 7 4 27 38 310 45 74 256 347 10 298 356 24 235 229 200 169 116 80 82 82 87 95 83 117 143 288 251 270 292 343 344 358 216 278 309 306 282 279 283 285 223 214 233 229 226 237 236 236 239 236 243 252 259
2 356 350 344 341 338 336 340 345 358 31 63 82 100 111 124 134 142 106 98 354 353 24 27 39 2 359 23 5 19 61 61 282 325 355 4 31 54 88 74 77 147 14 31 176 345 313 247 208 157 141 102 70 52 83 98 114 115 125 145 272 278 308 281 319 343 264 231 284 300 295 277 281 294 306 271 244 274 287 255 248 240 237 242 241 243 246 253
3 357 352 347 345 339 339 342 344 22 67 83 84 97 116 108 123 144 88 84 352 336 21 20 127 84 29 12 356 23 93 106 227 313 349 14 88 43 90 117 100 114 339 114 149 171 241 243 132 118 102 109 123 110 110 123 315 285 179 191 239 257 234 234 288 323 297 295 308 306 303 275 289 316 306 318 350 318 304 287 266 251 245 253 260 251 242 243
6 1 356 353 351 342 335 340 350 69 77 81 86 91 99 79 63 129 92 64 353 316 337 305 66 70 121 13 354 4 139 69 228 287 344 26 121 356 62 140 125 136 209 147 133 182 243 221 131 122 79 94 133 206 192 156 314 304 235 209 205 198 235 271 327 341 347 339 321 358 336 291 321 319 283 312 347 314 301 273 265 255 244 244 251 252 246 244
5 4 2 360 356 346 334 333 24 66 40 51 86 97 74 78 78 99 87 59 356 299 327 326 23 12 314 353 352 27 106 342 286 300 3 27 50 152 117 287 12 121 185 153 137 203 195 78 110 135 118 91 97 253 237 156 122 299 258 190 161 137 310 319 345 0 343 282 286 65 263 270 315 312 290 324 325 307 308 273 266 259 238 229 239 250 249 247
1 3 5 4 359 353 349 319 293 333 326 355 120 150 45 57 45 32 56 38 359 289 344 292 313 31 329 316 346 82 60 311 319 12 22 18 347 103 136 265 154 172 186 143 293 259 141 102 85 117 107 102 119 257 226 142 120 248 228 132 107 11 299 291 111 186 241 277 316 54 172 255 301 286 289 328 319 317 328 302 285 268 241 232 236 246 247 248
360 0 4 5 2 6 22 20 310 337 345 220 186 211 327 329 295 357 76 46 330 68 48 296 307 34 345 320 28 75 276 317 57 306 342 23 2 33 27 225 175 186 179 145 246 269 140 159 190 158 115 179 221 227 189 148 131 245 190 122 67 35 268 154 135 181 281 347 319 287 155 220 273 274 305 347 335 324 317 298 290 278 254 242 243 247 248 253
1 0 3 5 3 9 19 5 332 345 350 197 181 287 322 315 307 51 76 136 307 51 88 335 296 316 341 0 17 30 343 359 61 293 333 40 34 40 67 192 136 131 72 125 210 247 125 199 194 152 149 217 227 236 175 150 146 197 138 97 66 64 59 83 107 127 54 2 265 250 167 179 270 284 310 4 14 301 284 280 275 274 271 258 257 260 262 271
359 358 0 4 5 360 350 354 16 39 39 120 186 301 321 334 50 62 38 249 326 328 237 9 294 318 13 22 346 5 34 345 329 326 348 35 2 33 98 172 98 112 1 9 194 234 333 301 191 139 181 199 150 61 145 127 125 152 113 59 42 42 42 50 75 92 62 299 257 253 241 104 303 283 264 230 197 211 261 300 288 286 299 288 279 281 286 293
355 356 358 4 9 1 350 8 34 50 76 65 302 319 344 9 69 86 268 250 142 329 1 26 326 13 36 40 323 355 17 336 331 358 18 359 348 19 56 95 46 63 2 356 321 297 352 22 239 271 230 140 105 69 36 64 96 117 73 24 343 342 15 17 354 46 76 263 265 281 291 117 220 270 258 251 262 223 217 279 292 307 317 309 308 304 295 295
352 353 357 6 10 9 24 65 36 43 48 343 335 9 60 47 28 123 276 314 354 325 21 336 318 28 31 14 335 336 332 332 5 49 53 14 7 17 36 182 204 3 337 311 315 326 309 228 271 327 4 112 116 103 356 9 48 71 57 43 7 339 353 344 317 314 222 237 275 333 324 209 230 259 266 270 282 273 228 245 274 299 305 305 313 316 311 308
349 349 357 6 9 14 42 58 20 30 348 329 3 44 76 74 282 228 275 324 333 332 40 290 326 26 8 342 331 317 302 293 20 49 112 68 22 357 353 212 176 57 295 252 329 349 326 296 344 45 314 39 123 166 268 330 66 141 187 111 80 15 354 307 285 298 280 260 314 327 306 282 267 271 261 257 277 295 264 247 250 264 279 292 303 309 308 305
345 348 356 6 11 15 31 21 5 10 340 353 47 55 64 42 241 210 284 274 267 346 18 62 348 3 31 352 290 294 317 308 356 27 11 11 17 337 320 287 4 92 112 123 289 83 337 297 322 125 276 356 77 185 172 140 124 191 179 123 143 163 187 267 251 274 290 297 320 309 280 195 221 273 262 246 272 300 306 280 268 265 270 288 300 303 302 302
341 346 3 12 15 15 12 354 337 342 342 32 60 68 108 241 249 196 247 255 281 341 305 80 34 17 343 332 315 310 132 278 329 18 4 356 175 195 242 247 257 102 117 142 269 148 174 263 269 304 285 74 54 238 126 101 91 247 152 106 151 178 159 236 212 190 292 324 305 274 239 213 225 282 301 306 312 343 355 348 351 333 325 333 319 313 311 308
338 341 12 17 15 14 9 353 335 341 7 73 65 73 185 223 240 178 209 247 56 260 309 355 30 35 323 318 338 0 39 258 317 356 326 261 204 191 192 220 223 117 127 163 225 150 7 279 299 337 339 69 128 243 42 40 218 147 107 179 224 171 120 107 280 27 60 319 279 233 248 284 318 308 309 348 11 14 8 358 359 349 346 350 331 319 315 312
345 356 31 20 14 9 4 359 355 357 55 84 89 208 216 217 183 178 195 6 219 162 64 8 336 14 308 309 316 325 341 303 319 350 287 272 228 174 165 216 225 177 166 182 229 205 141 279 303 10 41 345 205 200 13 18 117 107 171 227 225 105 85 96 298 347 32 269 272 225 240 291 340 302 314 5 3 348 351 354 354 347 343 339 324 316 313 311
358 114 63 19 9 4 9 11 22 63 72 76 100 239 219 183 35 174 174 131 230 79 83 169 256 339 175 256 287 287 322 316 324 6 292 282 289 155 145 127 53 353 299 202 302 333 113 285 306 338 184 302 3 87 348 355 57 102 189 214 83 136 284 52 87 312 340 292 282 258 232 267 237 243 302 349 332 326 339 353 350 335 329 327 318 316 317 319
2 94 42 2 1 14 23 12 38 62 68 77 231 242 225 235 288 205 171 110 111 117 126 212 255 24 166 181 243 281 332 303 284 24 296 263 327 111 123 155 152 336 306 61 118 250 101 108 291 277 219 302 12 98 239 307 23 38 23 354 38 157 191 168 145 181 210 285 288 291 329 255 236 210 198 281 306 350 354 345 333 316 316 315 309 313 321 325
17 68 320 346 5 20 18 25 48 56 66 179 212 204 255 268 268 276 232 150 139 153 202 200 179 354 224 210 236 276 8 210 197 171 250 255 297 21 44 29 141 154 289 358 104 274 55 120 255 291 312 297 293 212 196 179 133 71 56 319 323 194 179 230 206 148 154 225 260 289 289 256 242 205 200 270 335 33 1 324 305 310 322 321 311 316 324 327
63 52 302 343 360 288 21 43 45 58 97 184 212 195 233 204 170 323 315 291 157 204 156 157 160 177 211 232 258 225 154 292 199 209 261 245 227 329 18 16 295 153 169 66 103 295 57 152 215 294 314 262 246 248 187 176 164 152 178 199 187 155 132 259 289 272 112 179 195 253 286 273 241 194 200 221 46 25 330 307 315 329 336 334 327 326 327 325
73 54 298 354 350 264 57 56 18 74 123 187 267 220 259 63 138 277 322 344 68 76 63 98 154 172 174 193 216 188 187 252 207 209 240 213 199 255 349 353 297 275 130 132 246 245 143 108 129 269 266 255 270 313 95 169 146 132 163 178 147 134 132 161 249 254 147 237 191 138 278 275 261 182 178 144 81 347 311 325 339 337 335 335 332 329 327 322
85 206 273 8 349 259 74 39 315 3 62 245 318 263 194 75 121 117 283 266 60 88 24 357 193 185 212 207 152 171 198 211 193 194 228 231 234 257 273 316 302 277 111 137 220 256 114 85 30 280 284 322 354 0 14 44 97 115 305 129 144 160 142 161 197 189 181 221 192 353 272 268 270 195 185 182 356 336 335 347 344 333 329 332 329 326 323 320
143 217 258 0 349 281 118 137 292 326 295 306 10 352 283 163 158 144 235 257 230 142 118 266 202 158 216 150 109 186 205 216 224 225 225 220 230 246 271 303 295 225 110 161 166 158 244 177 55 331 324 335 350 355 348 343 39 187 236 225 177 132 99 110 163 108 266 225 184 216 265 253 233 283 305 332 351 348 345 343 337 328 326 327 326 325 321 319
81 325 279 344 15 61 129 176 154 173 274 356 3 328 343 347 200 162 196 221 189 164 156 291 228 143 92 98 89 210 213 220 257 305 17 233 258 319 36 319 299 158 275 280 321 354 230 192 123 125 303 301 303 312 305 279 271 225 144 220 230 168 140 167 191 102 269 240 177 195 266 277 291 305 316 334 347 343 337 334 330 324 321 323 324 321 318 321
67 27 312 331 18 56 66 112 108 115 161 133 325 323 30 300 289 345 173 188 153 137 127 296 208 102 71 92 194 264 265 271 325 345 329 248 264 287 23 339 343 85 295 280 345 70 89 199 199 185 204 234 254 263 218 98 308 287 275 247 228 195 158 131 101 179 206 226 205 221 257 281 293 298 307 327 337 333 328 326 321 316 317 320 316 312 313 316
78 101 25 330 348 36 35 18 52 71 145 188 215 275 244 267 301 354 97 220 154 111 125 137 150 162 173 177 199 240 258 314 36 265 237 234 262 289 297 157 76 354 325 289 225 85 85 286 247 203 227 246 262 278 309 52 276 264 268 267 248 197 158 153 206 233 210 14 277 238 238 275 287 294 310 324 326 322 318 316 313 310 313 313 309 308 310 310
52 147 147 130 254 306 8 0 62 88 67 99 152 190 309 316 307 274 225 321 5 190 206 14 268 224 200 181 154 208 271 328 282 242 231 243 285 328 346 108 63 341 341 356 359 96 122 252 258 201 257 271 277 283 281 265 264 261 250 264 262 210 176 190 229 244 223 234 264 263 269 278 284 295 309 314 311 311 311 308 306 306 308 311 312 312 312 313
64 115 312 21 125 198 238 335 93 103 79 74 107 211 184 193 262 253 196 67 359 309 199 239 268 247 213 190 147 181 234 241 276 265 219 210 255 327 329 271 63 352 5 41 358 102 147 237 252 168 285 284 276 282 280 234 274 300 267 259 258 226 206 210 239 256 240 238 258 273 283 282 280 288 295 297 298 301 303 303 303 306 311 314 314 315 317 320
123 161 210 34 62 131 48 23 81 94 45 36 117 257 179 173 232 263 200 152 247 288 183 216 251 245 210 193 169 214 225 188 213 249 191 171 283 239 232 221 135 42 24 62 1 336 179 251 225 105 309 290 292 347 27 144 186 273 284 289 294 259 234 224 244 262 257 254 261 270 282 282 274 277 288 295 302 307 309 310 310 311 313 314 313 314 317 322
133 143 140 116 107 317 7 24 82 94 15 309 203 238 211 199 218 240 265 208 189 199 190 191 206 148 83 169 206 242 239 188 201 238 189 176 246 213 214 212 139 122 73 108 45 45 144 234 22 54 345 289 319 11 346 283 179 263 305 335 340 313 261 224 225 226 230 259 279 285 281 280 287 302 304 305 309 312 312 313 314 313 312 312 310 309 316 324
134 98 95 106 94 304 63 43 35 71 266 251 203 196 228 237 230 210 303 286 102 143 201 180 162 142 82 241 233 246 242 199 224 261 194 165 128 111 120 103 111 127 159 161 117 65 125 137 96 55 312 274 305 337 316 329 43 1 314 17 343 299 273 272 271 259 237 237 273 282 261 280 308 318 316 315 318 318 316 316 313 309 309 308 305 314 324 326